Content
SEND FEEDBACK

Daily
Averages
Monthly
Summary
United States of America

SAN FRANCISCO - GOLDEN GATE PARK, CALIFORNIA


Home > North America > United States > California
Elevation: 76 meters     Latitude: 37 46N     Longitude: 122 28W

WEATHER
 
SELECT A DAY
Number of Records: 184,759;   Date Range: 1/1/95 - 7/22/14
 
SHARE

PRINT THIS DATA

[ ← Previous Day ]
WEATHER ALMANAC - 31 JANUARY, 2013
[ Next Day → ]
[ °F ]   °C
Weather ElementAverageHighLow
Temperature10.5 °C16.7 °C (3:56 pm)6 °C (5:11 am)
Dewpoint5.9 °C7.8 °C (12:56 pm)3.3 °C (3:56 am)
Humidity74.2 %87 % (5:11 am)50 % (3:56 pm)
Barometer1024 hPa1026.1 hPa (9:56 am)1022.4 hPa (4:56 pm)
Wind Speed3.9 km/h13 km/h (5:56 pm)
Weather ElementAverage
Visibility15.6 km
Wind DirectionE (88.8 °)

Weather ElementTotal
Precipitation---
Heating Degree Days7 (Base 18.3)
Growing Degree Days1.4 (Base 10)
Averaged from 24 records on 31 January, 2013
WEATHER CONDITIONS BREAKOUT
WIND DIRECTION BREAKOUT
WEATHER BY HOUR - 31 JANUARY, 2013
[ °F ]   °C
Local TimeTemperatureDewpointHumidityBarometerVisibilityWind DirectionWind SpeedGust SpeedPrecipitationEventsConditions
1:56 AM8.3 °C4.4 °C77 %1025.4 hPa16.1 kmCalmClear
2:56 AM8.9 °C5.6 °C80 %1025.1 hPa16.1 kmCalmClear
3:56 AM6.7 °C3.3 °C79 %1025.1 hPa16.1 kmCalmClear
4:56 AM6.7 °C4.4 °C85 %1025.1 hPa16.1 kmCalmClear
5:11 AM6 °C4 °C87 %1025.1 hPa16.1 kmCalmPartly Cloudy
5:56 AM6.1 °C3.9 °C86 %1025.1 hPa16.1 kmCalmPartly Cloudy
6:56 AM8.3 °C5.6 °C83 %1025.4 hPa16.1 kmCalmPartly Cloudy
7:56 AM8.3 °C6.1 °C86 %1025.7 hPa16.1 kmCalmPartly Cloudy
8:56 AM10.6 °C7.2 °C80 %1025.7 hPa16.1 kmCalmPartly Cloudy
9:56 AM11.1 °C7.2 °C77 %1026.1 hPa14.5 kmNNE (20°)9.3 km/hClear
10:56 AM11.1 °C7.2 °C77 %1025.7 hPa14.5 kmCalmClear
11:56 AM11.7 °C6.7 °C71 %1025.1 hPa14.5 kmNE (50°)5.6 km/hClear
12:56 PM12.2 °C7.8 °C75 %1024.4 hPa14.5 kmNorth (10°)9.3 km/hClear
1:56 PM13.3 °C7.2 °C67 %1023.4 hPa14.5 kmNorth (360°)9.3 km/hHaze
2:56 PM14.4 °C7.8 °C65 %1022.7 hPa14.5 kmNorth (360°)7.4 km/hClear
3:56 PM16.7 °C6.1 °C50 %1022.7 hPa14.5 kmCalmClear
4:56 PM14.4 °C7.2 °C62 %1022.4 hPa14.5 kmNW (310°)7.4 km/hPartly Cloudy
5:56 PM13.3 °C5.6 °C60 %1022.4 hPa16.1 kmWest (280°)13 km/hPartly Cloudy
6:56 PM12.2 °C5 °C62 %1022.4 hPa16.1 kmWest (280°)13 km/hClear
7:56 PM11.7 °C5.6 °C66 %1022.4 hPa16.1 kmWest (280°)11.1 km/hClear
8:56 PM11.1 °C5.6 °C69 %1022.4 hPa16.1 kmCalmClear
9:56 PM10 °C6.1 °C77 %1022.4 hPa16.1 kmSouth (180°)7.4 km/hClear
10:56 PM9.4 °C6.1 °C80 %1022.4 hPa16.1 kmCalmClear
11:56 PM9.4 °C6.1 °C80 %1022.4 hPa16.1 kmCalmClear
Hourly data recorded from KSFO, located 0 kilometers away from San Francisco - Golden Gate Park, California







STORIES FROM OUR PARTNERS